Location: Buena Vista Beach
(41.8098°N, 81.1279°W)
Time: 09:16:13
(UTC+00:00)

H-2A R/B - Pass Details

Date: 29 October 2020
Orbit: 528 x 653 km, 98.3° (Epoch: 26 November)

Event Time Altitude Azimuth Distance (km) Brightness Sun altitude
Rises 22:46:23 0° 180° (S) 2,918 6.2 -5.2°
Reaches altitude 10° 22:48:38 10° 187° (S) 2,028 5.5 -5.6°
Maximum altitude 22:52:54 46° 261° (W) 872 4.0 -6.4°
Drops below altitude 10° 22:57:16 10° 335° (NNW) 2,068 5.4 -7.2°
Sets 22:59:35 0° 341° (NNW) 2,984 6.2 -7.6°
